Regional Weather Roundup
Issued by NWS Grand Forks, ND

Home | Current Version | Previous Version | Text Only | Print | Product List | Glossary Off
Versions: 1 2 3 4 5 6 7 8 9 10 11 12 13 14 15 16 17 18 19 20 21 22 23 24 25 26 27 28 29 30 31 32 33 34 35 36 37 38 39 40 41 42 43 44 45 46 47 48 49 50

000
ASUS43 KFGF 271031
RWRFGF
PRAIRIE TO PINES  WEATHER ROUNDUP
NATIONAL WEATHER SERVICE EASTERN NORTH DAKOTA/GRAND FORKS ND
400 AM CST SAT DEC 27 2014

 **SATELLITE DATA USED TO AUGMENT SKY COVER AT AUTOMATED STATIONS**
 *****  WEATHER ACROSS EASTERN NORTH DAKOTA  *****

CITY           SKY/WX    TMP DP  RH WIND       PRES   REMARKS
GRAND FORKS    CLEAR      0  -3  87 CALM      30.18F
GRAND FRKS AFB PTCLDY    -2  -5  87 CALM      30.17F
GRAND FRKS NWS   N/A      0 N/A N/A MISG        N/A
DEVILS LAKE    CLOUDY     9   3  78 SW7       30.07F WCI  -3
FARGO          CLEAR      3  -2  79 NW3       30.18F
WAHPETON ARPT  MOSUNNY    9   3  78 NW7       30.18S WCI  -3
$$

 ***** WEATHER ACROSS CENTRAL AND WESTERN NORTH DAKOTA  *****

CITY           SKY/WX    TMP DP  RH WIND       PRES   REMARKS
BISMARCK       CLOUDY     5   2  87 SE5       30.12F WCI  -4
MINOT          CLOUDY    20  15  81 SW9       30.04S WCI   9
JAMESTOWN      CLOUDY     4   0  83 SW3       30.11F
MINOT AFB      CLOUDY    20  19  98 W10       30.04S WCI   9
GARRISON         N/A     20  16  84 W8        30.05F WCI  10
WILLISTON      CLEAR     11   7  84 CALM      30.07F
DICKINSON      CLOUDY    23  16  74 W13       30.04F WCI  11
HETTINGER      CLOUDY    18  13  80 W9        30.09S WCI   7
$$

 *****  OTHER AIRPORT OBSERVATIONS IN OUR AREA  *****

CITY           SKY/WX    TMP DP  RH WIND       PRES   REMARKS
WALHALLA         N/A     -2  -4  92 CALM      30.12F
GRAFTON AIRPOR NOT AVBL
VALLEY CITY AR FAIR       1   1 100 CALM      30.13F
CANDO          CLOUDY     9   7  92 SW5       30.07F WCI   0
CAVALIER APRT  CLOUDY     0  -4  85 S6        30.14F WCI -12
GWINNER        SUNNY      3   1  92 N7        30.17F WCI  -9
SHEYENNE NWR     N/A      2  -3  81 CALM      29.95S
ROLLA          CLOUDY     7   5  92 SW16G22   30.01F WCI -11
 ***** THE ABOVE OBSERVATIONS ARE NON NWS ARE NOT QUALITY
       CONTROLLED AND MAY MIS-REPORT RAIN FOR SNOW...
$$

  *****  WEATHER ACROSS NORTHERN MINNESOTA  *****

CITY           SKY/WX    TMP DP  RH WIND       PRES   REMARKS
FLAG ISLAND    CLOUDY     9   3  78 W6        30.10F WCI  -1
WARROAD        LGT SNOW  10   5  79 W5        30.12F WCI   2
ROSEAU         LGT SNOW  10   5  79 SW3       30.12F
HALLOCK        CLOUDY     5   1  85 S7        30.15F WCI  -7
THF RVR FALLS  CLOUDY     7   1  78 W5        30.14S WCI  -2
BAUDETTE       CLOUDY    11   5  77 VRB3      30.10F
WASKISH        FLURRIES  14   9  79 CALM      30.10S
CROOKSTON      FLURRIES   7   3  85 W3        30.18F
STEPHEN NDAWN    N/A      3   1  92 SW5         N/A  WCI  -6
GREENBUSH NDAW   N/A      7   3  85 SW6         N/A  WCI  -3
$$
  *****  WEATHER ACROSS CENTRAL AND WEST MINNESOTA  *****

CITY           SKY/WX    TMP DP  RH WIND       PRES   REMARKS
FOSSTON        LGT SNOW   9   7  92 W6        30.12F WCI  -1
BEMIDJI        FLURRIES  12   8  83 W7        30.08F WCI   1
PARK RAPIDS    CLOUDY    17  10  74 NW6       30.07F WCI   9
ELBOW LAKE     FAIR       9   6  87 NW9       30.14R WCI  -4
WADENA         CLOUDY    16  12  86 NW7       30.08S WCI   6
DETROIT LAKES  LGT SNOW  10   9  92 NW5       30.11F WCI   2
MOORHEAD       CLEAR      3   3 100 CALM      30.18F
FERGUS FALLS   MOCLDY     7   3  85 N7        30.18S WCI  -5
MORRIS MN      MOCLDY    12   9  85 NW15      30.13S WCI  -4
STAPLES        CLOUDY    19  16  86 NW8       30.07S WCI   9
$$
  *****  WEATHER ELSEWHERE ACROSS MINNESOTA  *****

CITY           SKY/WX    TMP DP  RH WIND       PRES   REMARKS
DULUTH         CLOUDY    22  16  78 N12       30.00F WCI  10
INTRNTL FALLS  CLOUDY    12   6  77 NW5       30.10S WCI   4
ELY            CLOUDY    16  10  79 NW5       30.04F WCI   9
CLOQUET        CLOUDY    21  16  79 NW13      30.01F WCI   9
WHEATON        FLURRIES   9   3  78 W7        30.20S WCI  -3
BRAINERD       CLOUDY    21  14  74 N10       30.06F WCI  10
HIBBING        CLOUDY    18  10  71 N10       30.05F WCI   6
ALEXANDRIA     CLOUDY    18  14  84 NW10      30.09R WCI   6
SAINT CLOUD    CLOUDY    25  17  72 N12       30.05S WCI  14
MINNEAPOLIS    LGT SNOW  25  22  88 N15       30.00F VSB 3/4 WCI  13
$$

  *****  WEATHER ACROSS SOUTH DAKOTA  *****

CITY           SKY/WX    TMP DP  RH WIND       PRES   REMARKS
SIOUX FALLS    LGT SNOW  20  17  88 NW10      30.12R FOG     WCI   9
BROOKINGS      NOT AVBL
WATERTOWN      CLOUDY    12   8  84 NW13      30.12S WCI  -3
HURON          CLOUDY    10   7  87 NW10      30.19S WCI  -4
SISSETON         N/A      8   4  83 NW12      30.17S WCI  -7
ABERDEEN       PTCLDY     8   3  80 CALM      30.20S
MITCHELL       CLOUDY    15  12  88 NW13      30.19S FOG     WCI   1
PIERRE         MOCLDY     7   5  91 SW6       30.17S WCI  -3
MOBRIDGE       CLOUDY     2  -1  88 CALM      30.13F
RAPID CITY     CLOUDY    11   7  84 W5        30.12S WCI   3
$$

  *****  SOME WEATHER IN NEARBY STATES *****

CITY           SKY/WX    TMP DP  RH WIND       PRES   REMARKS
GLASGOW MT     CLEAR     14  10  84 S6        30.04F WCI   5
GREAT FALLS MT CLOUDY    18  12  77 SW15      30.02R WCI   4
CHEYENNE WY    PTCLDY     7  -1  70 NW12      30.03R WCI  -8
SCOTTSBLUFF NE PTCLDY     2   0  91 NW5       30.14R WCI  -8
OMAHA NE       FLURRIES  26  23  88 NW16      30.13R WCI  14
DES MOINES IA  CLOUDY    34  30  85 NW17      29.99R WCI  23
DAVENPORT IA   CLOUDY    48  45  89 S12       29.90F
CHICAGO IL     CLOUDY    46  42  86 S9        29.96F
EAU CLAIRE WI  LGT SNOW  29  26  89 N8        29.90F FOG     WCI  21
LA CROSSE WI   LGT RAIN  33  32  96 NW3       29.86F FOG
$$

  *****  SOME NATIONAL WEATHER *****

CITY           SKY/WX    TMP DP  RH WIND       PRES   REMARKS
LA GUARDIA NY  MOCLDY    44  30  57 W3        30.20S
RALEIGH NC     PTCLDY    33  30  88 CALM      30.29R
ATLANTA GA     PTCLDY    38  33  82 CALM      30.27S
NEW ORLEANS LA LGT RAIN  66  62  87 E5        30.12F
OKLAHOMA CITY  FLURRIES  36  25  64 N22G28    30.17S
ALBUQUERQUE NM CLEAR     19  12  74 CALM      30.10R
SALT LAKE CITY PTCLDY    19  16  88 CALM      30.28R
LOS ANGELES CA CLEAR     48  23  37 N3        30.22R
BOISE ID       CLEAR     21  16  81 SE6       30.33R WCI  13
SEATTLE WA     CLOUDY    41  35  79 S7        30.29F
$$

*** WEATHER ACROSS MANITOBA...SASKATCHEWAN AND ONTARIO ***
                ***ONTARIO***

CITY           SKY/WX    TMP DP  RH WIND       PRES   REMARKS
GERALDTON      FLURRIES  16  12  86 CALM      30.04F
THUNDER BAY    CLOUDY    25  18  74 NW5       30.06F WCI  19
SIOUX LOOKOUT  CLOUDY     1  -2  85 W3        30.09F
TORONTO        CLOUDY    37  36  93 SE3       30.12
BIG TROUT LK   FLURRIES  -6  -9  84 W6        30.08F WCI -18
PICKLE LAKE    NOT AVBL
DRYDEN         FLURRIES   3   1  92 W3        30.08F
KENORA         FLURRIES   3   0  85 W6        30.08F WCI  -8
$$
                *** MANITOBA***

CITY           SKY/WX    TMP DP  RH WIND       PRES   REMARKS
BRANDON        FLURRIES   1  -2  85 W8        30.05F WCI -12
DAUPHIN        FLURRIES   7   1  78 SW6       30.03F WCI  -3
ISLAND LAKE    FLURRIES  -9 -17  70 S3        30.07F
PILOT MOUND      N/A      3   0  85 SW8         N/A  WCI -10
THE PAS        CLEAR    -18 -22  83 NW8       30.08  WCI -37
THOMPSON       CLEAR    -31 -38  68 W3        30.03F
WINNIPEG       FLURRIES   0  -4  85 S12       30.13F WCI -18
CHURCHILL      LGT SNOW  -6  -9  84 N14       29.99S DRFTSNOWWCI -26
GILLAM         FLURRIES -24 -31  69 W7        30.01  WCI -42
$$
                ***SASKATCHEWAN***

CITY           SKY/WX    TMP DP  RH WIND       PRES   REMARKS
ESTEVAN        CLOUDY    18  12  79 W9        30.02F WCI   6
KINDERSLEY     CLOUDY    14  10  85 NW6       29.96R WCI   5
LLOYDMINSTER   FLURRIES  10   9  92 E3        29.95R
PRINCE ALBERT  CRYSTALS  -6  -9  84 NE3       30.08R
REGINA         CLOUDY    10   9  92 SW3       29.99F
YORKTON        FLURRIES   9   5  85 W5        29.99S WCI   0
N. BATTLEFORD  FLURRIES  10   9  92 CALM      30.02S
LA RONGE       CLEAR    -31 -36  75 W3        30.14R
SASKATOON      FLURRIES  12   9  85 NE8       30.02S WCI   1
SWIFT CURRENT  CLOUDY    14  12  92 W12       29.94R WCI   0
$$
NOTE: THESE ARE AUTOMATED STATIONS WITH LIMITED QUALITY CONTROL
      "FAIR" INDICATES FEW OR NO CLOUDS BELOW 12,000 FEET WITH NO
      SIGNIFICANT WEATHER AND/OR OBSTRUCTIONS TO VISIBILITY.
      SKY/WX - SKY CONDITION AND SIGNIFICANT WEATHER.
      TMP - AIR TEMPERATURE.    DP   - DEWPOINT TEMPERATURE.
      RH  - RELATIVE HUMIDITY.  PRES - PRESSURE.
      HX  - HEAT INDEX.         WCI  - WIND CHILL INDEX.
$



USA.gov is the U.S. government's official web portal to all federal, state and local government web resources and services.